Weather in Nikiforovo

Russia / Republic of Tatarstan     55°50′45″N   50°53′25″E
temp.,
°C
wind,
m/s
gust,
m/s
humid.,
%
clouds,
%
prec.,
mm/h
press.,
hPa
HPBL,
m
29 july, thu
thu2900:00+12wsw22652 0.0 101411
03:00+11sw33705 0.0 101439
06:00+15sw48617 0.0 1013221
09:00+21sw684544 0.0 1012660
12:00+24wsw7840100 0.0 10101506
15:00+24wsw6746100 0.0 10091176
18:00+19wsw7127696 0.0 1009611
21:00+16s31094100 0.1 1007343
30 july, fri
fri3000:00+17ssw51282100 0.0 1006433
03:00+16ssw4109692 0.0 1004386
06:00+17sw4896100 0.3 1004417
09:00+21wnw577093 0.3 1004821
12:00+25wnw6755100 0.0 10051598
15:00+25w5752100 0.0 10051446
18:00+24sw4863100 0.0 1005391
21:00+22sw3768100 0.0 1005153
31 july, sat
sat3100:00+19ssw4784100 0.6 1005111
03:00+17s2496100 1.9 1005104
06:00+19s469397 0.3 1005251
09:00+23ssw577123 0.4 1004820
12:00+27sw8105621 0.0 10031537
15:00+27wsw8105478 0.2 10041675
18:00+25wsw495618 0.0 1004758
21:00+23w4955100 0.0 1006381
1 august, sun
sun100:00+17wsw49790 0.0 1007151
03:00+16w49820 0.0 1008140
06:00+19wsw486629 0.0 1009219
09:00+23w694863 0.0 1010672
12:00+27w683831 0.0 10102158
15:00+28w683693 0.0 10102417
18:00+25wsw4847100 0.0 1010351
21:00+22wsw495753 0.0 1011191
2 august, mon
mon200:00+18wsw356641 0.0 101156
03:00+18sw367226 0.0 101289
06:00+21ssw410607 0.0 1012245
09:00+28sw7104123 0.0 1011882
12:00+31wsw7103210 0.0 10101729
15:00+31wsw693395 0.0 10102035
18:00+28sw334360 0.0 101054
21:00+22sw34592 0.3 101046